{"data":{"norad_id":59697,"intl_designator":"2024-086R","name":"STARLINK-32099","alt_names":[],"object_type":"PAYLOAD","status":"ACTIVE","operator":null,"country":"US","launch_date":"2024-05-08","launch_site_code":"AFETR","launch_vehicle":null,"mission":null,"orbit_class":"UNKNOWN","rcs_meters":null,"size_class":null,"mass_kg":null,"dimensions":null,"purposes":["comms"],"wikipedia_slug":null,"has_3d_model":false,"image_url":null,"decayed_at":null,"tle_current":{"epoch":"2026-09-21T15:30:18.700128Z","epoch_age_seconds":72171,"freshness":"FRESH","line1":"1 59697U 24086R   26264.64604977 -.00000008  00000+0  92427-5 0  9996","line2":"2 59697  42.9999  33.0254 0001663 274.8413  85.2249 15.27574669134080","mean_motion":15.27574669,"eccentricity":0.0001663,"inclination_deg":42.9999,"raan_deg":33.0254,"arg_perigee_deg":274.8413,"mean_anomaly_deg":85.2249,"bstar":9.2427e-6,"rev_number":13408,"period_min":94.267077690066,"perigee_km":481.92404111548,"apogee_km":484.20607692031,"semimajor_km":6861.2020590179,"source":"CELESTRAK","updated_at":"2026-09-22T09:00:49.055276Z"}}}